Change the Weather History Date:

Friday, August 31, 2012

  Actual Average Record
Temperature  
Mean Temperature 86 °F -  
Max Temperature 90 °F 88 °F 93 °F (1948)
Min Temperature 82 °F 79 °F 73 °F (1960)
Cooling Degree Days 20    
Growing Degree Days 36 (Base 50)    
Moisture  
Dew Point 74 °F    
Average Humidity 70    
Maximum Humidity 79    
Minimum Humidity 59    
Precipitation  
Precipitation 0.00 in - - ()
Sea Level Pressure  
Sea Level Pressure 30.09 in    
Wind  
Wind Speed 10 mph (East)    
Max Wind Speed 14 mph    
Max Gust Speed -    
Visibility 10 miles    
Events      
Averages and records for this station are not official NWS values.
T = Trace of Precipitation, MM = Missing Value Source: NWS Daily Summary

Daily Weather History Graph

Daily Weather History Graph

Search for Another Location

Airport or City:

Trip Planner

Search our weather history database for the weather conditions in past years. The results will help you decide how hot, cold, wet, or windy it might be!

Date:

Astronomy

Aug. 31, 2012 Rise Set
Actual Time 7:07 AM EDT 7:45 PM EDT
Civil Twilight 6:44 AM EDT 8:08 PM EDT
Nautical Twilight 6:17 AM EDT 8:35 PM EDT
Astronomical Twilight 5:49 AM EDT 9:03 PM EDT
Moon 7:41 PM EDT (8/31) 7:04 AM EDT (8/31)
Length of Visible Light 13h 24m
Length of Day
12h 37m
Full, 100% of the Moon is Illuminated
Aug 31
Full
Sep 8
Last Quarter
Sep 15
New
Sep 22
First Quarter
Sep 29
Full

Hourly Weather History & Observations

Time (EDT) Temp. Heat Index Dew Point Humidity Pressure Visibility Wind Dir Wind Speed Gust Speed Precip Events Conditions
12:53 AM 84.0 °F 92.6 °F 75.9 °F 76% 30.08 in 10.0 mi East 10.4 mph - N/A   Scattered Clouds
1:53 AM 84.0 °F 91.9 °F 75.0 °F 74% 30.07 in 10.0 mi East 11.5 mph - N/A   Scattered Clouds
2:53 AM 84.0 °F 91.9 °F 75.0 °F 74% 30.06 in 10.0 mi East 10.4 mph - N/A   Scattered Clouds
3:53 AM 84.0 °F 92.6 °F 75.9 °F 76% 30.05 in 10.0 mi East 11.5 mph - N/A   Scattered Clouds
4:53 AM 84.0 °F 91.9 °F 75.0 °F 74% 30.06 in 10.0 mi East 10.4 mph - N/A   Scattered Clouds
5:18 AM 82.4 °F 89.5 °F 75.2 °F 79% 30.06 in 10.0 mi East 8.1 mph - N/A   Mostly Cloudy
5:28 AM 84.2 °F 92.3 °F 75.2 °F 74% 30.06 in 10.0 mi East 8.1 mph - N/A   Scattered Clouds
5:53 AM 82.9 °F 90.8 °F 75.9 °F 79% 30.06 in 10.0 mi East 9.2 mph - N/A   Clear
6:02 AM 82.4 °F 89.5 °F 75.2 °F 79% 30.06 in 10.0 mi East 9.2 mph - N/A   Scattered Clouds
6:53 AM 84.0 °F 92.6 °F 75.9 °F 76% 30.07 in 10.0 mi ESE 10.4 mph - N/A   Scattered Clouds
7:53 AM 84.0 °F 91.9 °F 75.0 °F 74% 30.09 in 10.0 mi ESE 8.1 mph - N/A   Scattered Clouds
8:53 AM 86.0 °F 93.8 °F 73.9 °F 67% 30.10 in 10.0 mi ESE 13.8 mph - N/A   Scattered Clouds
9:53 AM 87.1 °F 95.4 °F 73.9 °F 65% 30.12 in 10.0 mi ESE 11.5 mph - N/A   Scattered Clouds
10:53 AM 88.0 °F 96.5 °F 73.9 °F 63% 30.13 in 10.0 mi East 11.5 mph - N/A   Scattered Clouds
11:53 AM 89.1 °F 99.1 °F 75.0 °F 63% 30.13 in 10.0 mi East 10.4 mph - N/A   Scattered Clouds
12:53 PM 89.1 °F 99.1 °F 75.0 °F 63% 30.13 in 10.0 mi East 9.2 mph - N/A   Scattered Clouds
1:53 PM 89.1 °F 99.1 °F 75.0 °F 63% 30.12 in 10.0 mi ESE 11.5 mph - N/A   Scattered Clouds
2:53 PM 89.1 °F 98.0 °F 73.9 °F 61% 30.11 in 10.0 mi ESE 10.4 mph - N/A   Scattered Clouds
3:53 PM 89.1 °F 97.0 °F 73.0 °F 59% 30.09 in 10.0 mi East 10.4 mph - N/A   Scattered Clouds
4:53 PM 88.0 °F 95.6 °F 73.0 °F 61% 30.07 in 10.0 mi East 11.5 mph - N/A   Scattered Clouds
5:53 PM 87.1 °F 95.4 °F 73.9 °F 65% 30.07 in 10.0 mi East 10.4 mph - N/A   Scattered Clouds
6:53 PM 86.0 °F 93.8 °F 73.9 °F 67% 30.06 in 10.0 mi East 10.4 mph - N/A   Scattered Clouds
7:53 PM 84.0 °F 90.2 °F 73.0 °F 69% 30.06 in 10.0 mi East 13.8 mph - N/A   Mostly Cloudy
8:53 PM 84.0 °F 90.2 °F 73.0 °F 69% 30.08 in 10.0 mi East 11.5 mph - N/A   Scattered Clouds
9:53 PM 84.0 °F 90.2 °F 73.0 °F 69% 30.10 in 10.0 mi East 11.5 mph - N/A   Clear
10:53 PM 84.0 °F 90.2 °F 73.0 °F 69% 30.11 in 10.0 mi East 10.4 mph - N/A   Clear
11:53 PM 82.9 °F 88.8 °F 73.0 °F 72% 30.11 in 10.0 mi East 8.1 mph - N/A   Clear